Showing default

OCO 2, 40059

Orbit data source: Space-Track

OCO 2, 40059 is a payload satellite owned by GSFC (US) in SSO that was launched on Wed, 02 Jul 2014 UTC via a DELTA 7320-10C launch vehicle from the Air Force Western Test Range (AFWTR). Payload-class satellites include a variety of spacecraft equipped with specific instruments for various scientific and technological missions. These include communications satellites like Starlink; space stations such as the ISS; scientific satellites like the Hubble; Earth observation satellites from companies like Planet Labs, Umbra, and HawkEye 360; GPS; miniature CubeSats for education and research; and military/defense satellites.

Loading next visibility...
Identifier
40059, 2014-035A
Orbit
SSO
Country
Flag of USUS
Related business
Manufacturer
OSC
Mission
Operational Civil Science
Bus & Motor
LEOSTAR-2, AOCS
Mass
454 kg wet, 409 kg dry
Launch date (UTC)
2014-07-02 (12 years ago)
Launch vehicle
DELTA 7320-10C
Launch site
Air Force Western Test Range (AFWTR)
Object type
Payload
Rocket body
Debris
Shape & HBR
Hex Cyl + 2 Pan, 4.5 m
Radar Cross Section
3.820 m², Large (>1 m²)

Expand to show TLE details & history
Last TLE update: 2 days ago

TLE from 2 days ago
0 OCO 2
1 40059U 14035A   26171.38294918  .00000282  00000-0  72614-4 0  9998
2 40059  98.2017 112.6273 0001513  84.7645 275.3726 14.57113403636515
Epoch: 2026-06-20T09:11Z
TLE epoch observation values (Epoch: 2026-06-20T09:11:26.809Z)
Latitude
-0.00002°
Longitude
66.16723°
Altitude
705.391 km
Speed
7.503 km/s
True Right ascension
07h 30m 30s
True Declination
0° 00' 00"
Sunlit
Object was in daylight at epoch
Visualization orbit readout
Latitude
Unknown
Longitude
Unknown
Altitude
Unknown
Speed
Unknown
Apparent Right ascension
Unknown
Apparent Declination
Unknown
Sunlit
N/A
Visualization observer readout
Local Sidereal Time
21:42:39
Azimuth
Unknown
Elevation
Unknown
Doppler factor
Unknown
Orbital elements
Apogee altitude
700.666 km
Perigee altitude
698.524 km
Semi-major axis
7,077.732 km
Eccentricity
0.00015
Inclination
98.2017°
RAAN
112.6273°
Arg. of periapsis
84.7645°
True anomaly
275.35534°
Mean anomaly
275.3726°
Eccentric anomaly
275.36397°
Mean motion
3.64504 °/min
Orbital period
98.76 mins
BSTAR
0.000072614
Loading maneuver chart data...
Computing Atmospheric mass density...
Loading historical data...
Loading historical data...
Loading historical data...
Loading historical data...
Loading historical data...
Loading historical data...
Loading historical data...
Other satellites on launch #35 in the year 2014 (2014-07-02 UTC)

Documentation

Showing up to 5 results
|